Santiago, Chile

12:08 AM -03 on October 24, 2018 (GMT -0300)
Arturo Merino Benitez International

Weather History for SCEL - February, 2018

Change the Weather History Date:

Wednesday, February 7, 2018

  Actual Average Record
Temperature  
Mean Temperature 72 °F -  
Max Temperature 85 °F 81 °F 88 °F (2013)
Min Temperature 60 °F 51 °F 51 °F (1999)
Cooling Degree Days 8    
Growing Degree Days 22 (Base 50)    
Moisture  
Dew Point 55 °F    
Average Humidity 56    
Maximum Humidity 77    
Minimum Humidity 27    
Precipitation  
Precipitation 0.00 in - - ()
Sea Level Pressure  
Sea Level Pressure 29.93 in    
Wind  
Wind Speed 8 mph ()    
Max Wind Speed 18 mph    
Max Gust Speed -    
Visibility 6.0 miles    
Events      
Averages and records for this station are not official NWS values.
T = Trace of Precipitation, MM = Missing Value Source: Averaged Metar Reports

Daily Weather History Graph

Daily Weather History Graph

Search for Another Location

Airport or City:

Astronomy

Feb. 07, 2018 Rise Set
Actual Time 7:11 AM -03 8:42 PM -03
Civil Twilight 6:45 AM -03 9:08 PM -03
Nautical Twilight 6:13 AM -03 9:40 PM -03
Astronomical Twilight 5:40 AM -03 10:13 PM -03
Moon 12:53 AM -03 (2/7) 2:19 PM -03 (2/7)
Length of Visible Light 14h 23m
Length of Day
13h 30m
Waning Gibbous, 51% of the Moon is Illuminated
Feb 7
Waning Gibbous
Feb 7
Last Quarter
Feb 15
New
Feb 23
First Quarter
Mar 1
Full

Hourly Weather History & Observations

Time (-03) Temp. Heat Index Dew Point Humidity Pressure Visibility Wind Dir Wind Speed Gust Speed Precip Events Conditions
12:00 AM 69.8 °F - 55.4 °F 60% 29.92 in - South 9.2 mph - N/A   Clear
1:00 AM 66.2 °F - 55.4 °F 68% 29.92 in - South 5.8 mph - N/A   Clear
2:00 AM 66.2 °F - 55.4 °F 68% 29.92 in - SSE 8.1 mph - N/A   Clear
3:00 AM 65 °F - 55 °F 61% 29.90 in 6 mi SSE 5.8 mph - -   Partly Cloudy
3:00 AM 64.4 °F - 55.4 °F 73% 29.92 in - SSE 5.8 mph - N/A   Clear
4:00 AM 64.4 °F - 55.4 °F 73% 29.92 in - SSE 8.1 mph - N/A   Clear
5:00 AM 62.6 °F - 53.6 °F 72% 29.92 in - SSE 5.8 mph - N/A   Clear
6:00 AM 62.6 °F - 53.6 °F 72% 29.92 in - SSE 6.9 mph - N/A   Clear
7:00 AM 60.8 °F - 53.6 °F 77% 29.95 in - SSE 4.6 mph - N/A   Clear
8:00 AM 60.8 °F - 53.6 °F 77% 29.98 in - SSE 2.3 mph - N/A   Clear
9:00 AM 66 °F - 55 °F 58% 29.95 in 6 mi Calm Calm - -   Partly Cloudy
9:00 AM 66.2 °F - 55.4 °F 68% 29.98 in - Variable 2.3 mph - N/A   Clear
10:00 AM 69.8 °F - 55.4 °F 60% 29.98 in - SW 4.6 mph - N/A   Clear
11:00 AM 73.4 °F - 55.4 °F 53% 29.98 in - Variable 2.3 mph - N/A   Clear
12:00 PM 77.0 °F - 57.2 °F 50% 29.98 in - Variable 4.6 mph - N/A   Clear
1:00 PM 82.4 °F 82.0 °F 57.2 °F 42% 29.95 in - South 11.5 mph - N/A   Clear
2:00 PM 84.2 °F 83.5 °F 57.2 °F 40% 29.95 in - South 16.1 mph - N/A   Clear
3:00 PM 85 °F - 56 °F 27% 29.86 in 6 mi SW 16.1 mph - -   Partly Cloudy
3:00 PM 84.2 °F 83.5 °F 57.2 °F 40% 29.95 in - SW 16.1 mph - N/A   Clear
4:00 PM 82.4 °F 82.0 °F 57.2 °F 42% 29.92 in - SW 17.3 mph - N/A   Clear
5:00 PM 82.4 °F 81.7 °F 55.4 °F 39% 29.92 in - SW 18.4 mph - N/A   Clear
6:00 PM 80.6 °F 80.5 °F 55.4 °F 42% 29.92 in - SSW 17.3 mph - N/A   Clear
7:00 PM 78.8 °F - 55.4 °F 44% 29.92 in - SSW 18.4 mph - N/A   Clear
8:00 PM 75.2 °F - 55.4 °F 50% 29.92 in - SSW 16.1 mph - N/A   Clear
9:00 PM 74 °F - 54 °F 39% 29.88 in 6 mi SSW 12.7 mph - -   Partly Cloudy
9:00 PM 75.2 °F - 53.6 °F 47% 29.92 in - SSW 12.7 mph - N/A   Clear
10:00 PM 69.8 °F - 55.4 °F 60% 29.95 in - SE 10.4 mph - N/A   Clear
11:00 PM 68.0 °F - 53.6 °F 60% 29.95 in - SSE 10.4 mph - N/A   Clear